STARLINK-33885, 63886

Orbit data source: Space-Track

STARLINK-33885, 63886 is a payload satellite owned by SpaceX/Seattle (US) in LEO that was launched on Sat, 10 May 2025 UTC via an FALCON 9 launch vehicle from the Air Force Western Test Range (AFWTR). Payload-class satellites include a variety of spacecraft equipped with specific instruments for various scientific and technological missions. These include communications satellites like Starlink; space stations such as the ISS; scientific satellites like the Hubble; Earth observation satellites from companies like Planet Labs, Umbra, and HawkEye 360; GPS; miniature CubeSats for education and research; and military/defense satellites.

Loading next visibility...
Identifier
63886, 2025-094Y
Orbit
LEO
Country
Flag of USUS
Related business
Manufacturer
SpaceX/Seattle
Mission
Operational Commercial Communications
Bus & Motor
STARLINK V2MO, Unknown motor
Mass
575 kg wet, ~530 kg dry
Launch date (UTC)
2025-05-10 (1 year ago)
Launch vehicle
FALCON 9
Launch site
Air Force Western Test Range (AFWTR)
Object type
Payload
Rocket body
Debris
Shape & HBR
Box + 2 Pan, 17.7 m
Radar Cross Section
36.964 m², Large (>1 m²)

Expand to show TLE details & history
Last TLE update: 12 hours ago

TLE from 12 hours ago
0 STARLINK-33885
1 63886U 25094Y   26171.41512442  .00000631  00000-0  60698-4 0  9994
2 63886  70.0024 335.3191 0002596 266.0818  94.0044 14.98334769 62591
Epoch: 2026-06-20T09:57Z
TLE epoch observation values (Epoch: 2026-06-20T09:57:46.749Z)
Latitude
-0.00008°
Longitude
-82.75579°
Altitude
574.592 km
Speed
7.574 km/s
True Right ascension
22h 21m 16s
True Declination
0° 00' 00"
Sunlit
Object was in daylight at epoch
Visualization orbit readout
Latitude
Unknown
Longitude
Unknown
Altitude
Unknown
Speed
Unknown
Apparent Right ascension
Unknown
Apparent Declination
Unknown
Sunlit
N/A
Visualization observer readout
Local Sidereal Time
08:33:20
Azimuth
Unknown
Elevation
Unknown
Doppler factor
Unknown
Orbital elements
Apogee altitude
571.793 km
Perigee altitude
568.185 km
Semi-major axis
6,948.126 km
Eccentricity
0.00026
Inclination
70.0024°
RAAN
335.3191°
Arg. of periapsis
266.0818°
True anomaly
94.03407°
Mean anomaly
94.0044°
Eccentric anomaly
94.01924°
Mean motion
3.7475 °/min
Orbital period
96.06 mins
BSTAR
0.000060698
Loading maneuver chart data...
Computing Atmospheric mass density...
Loading historical data...
Loading historical data...
Loading historical data...
Loading historical data...
Loading historical data...
Loading historical data...
Loading historical data...

Documentation

Showing up to 5 results
|